TimeEDT,TemperatureF,Dew PointF,Humidity,Sea Level PressureIn,VisibilityMPH,Wind Direction,Wind SpeedMPH,Gust SpeedMPH,PrecipitationIn,Events,Conditions,WindDirDegrees,DateUTC
12:14 AM,73.4,71.6,94,30.22,-9999.0,East,3.5,-,N/A,,Overcast,80,2013-07-14 04:14:00
12:23 AM,73.4,71.6,94,30.22,-9999.0,East,4.6,-,N/A,,Overcast,80,2013-07-14 04:23:00
12:53 AM,73.9,71.1,91,30.19,-9999.0,East,4.6,-,N/A,,Overcast,80,2013-07-14 04:53:00
1:20 AM,73.4,71.6,94,30.23,-9999.0,East,3.5,-,N/A,,Overcast,80,2013-07-14 05:20:00
1:35 AM,73.4,71.6,94,30.24,-9999.0,ENE,4.6,-,N/A,,Overcast,70,2013-07-14 05:35:00
1:53 AM,73.0,71.1,93,30.20,-9999.0,East,4.6,-,N/A,,Overcast,80,2013-07-14 05:53:00
2:00 AM,73.4,69.8,88,30.23,-9999.0,ENE,4.6,-,N/A,,Overcast,70,2013-07-14 06:00:00
2:06 AM,73.4,71.6,94,30.24,-9999.0,East,4.6,-,N/A,,Overcast,80,2013-07-14 06:06:00
2:21 AM,73.4,69.8,88,30.24,-9999.0,ENE,4.6,-,N/A,,Overcast,70,2013-07-14 06:21:00
2:53 AM,73.0,70.0,90,30.20,-9999.0,East,4.6,-,N/A,,Overcast,80,2013-07-14 06:53:00
3:53 AM,73.0,70.0,90,30.21,-9999.0,East,3.5,-,N/A,,Overcast,80,2013-07-14 07:53:00
4:01 AM,73.4,69.8,88,30.25,-9999.0,East,3.5,-,N/A,,Overcast,80,2013-07-14 08:01:00
4:09 AM,73.4,69.8,88,30.25,-9999.0,East,3.5,-,N/A,,Overcast,90,2013-07-14 08:09:00
4:44 AM,73.4,69.8,88,30.25,-9999.0,East,3.5,-,N/A,,Overcast,100,2013-07-14 08:44:00
4:53 AM,73.0,70.0,90,30.22,-9999.0,East,3.5,-,N/A,,Overcast,80,2013-07-14 08:53:00
5:19 AM,71.6,69.8,94,30.26,-9999.0,East,4.6,-,N/A,,Overcast,80,2013-07-14 09:19:00
5:27 AM,71.6,69.8,94,30.26,-9999.0,East,5.8,-,N/A,,Overcast,80,2013-07-14 09:27:00
5:53 AM,72.0,70.0,93,30.24,-9999.0,East,5.8,-,N/A,,Overcast,80,2013-07-14 09:53:00
6:25 AM,71.6,69.8,94,30.28,-9999.0,East,3.5,-,N/A,,Overcast,90,2013-07-14 10:25:00
6:42 AM,71.6,69.8,94,30.29,-9999.0,East,4.6,-,N/A,,Overcast,90,2013-07-14 10:42:00
6:53 AM,72.0,70.0,93,30.26,-9999.0,East,4.6,-,N/A,,Overcast,90,2013-07-14 10:53:00
7:53 AM,73.0,70.0,90,30.28,-9999.0,East,4.6,-,N/A,,Overcast,100,2013-07-14 11:53:00
8:28 AM,75.2,71.6,89,30.32,-9999.0,East,4.6,-,N/A,,Overcast,80,2013-07-14 12:28:00
8:53 AM,75.9,71.1,85,30.29,-9999.0,Variable,3.5,-,N/A,,Overcast,0,2013-07-14 12:53:00
9:51 AM,78.8,71.6,78,30.34,-9999.0,Calm,Calm,-,N/A,,Mostly Cloudy,0,2013-07-14 13:51:00
9:53 AM,79.0,71.1,77,30.31,-9999.0,Variable,3.5,-,N/A,,Mostly Cloudy,0,2013-07-14 13:53:00
10:20 AM,78.8,71.6,78,30.34,-9999.0,Calm,Calm,-,N/A,,Scattered Clouds,0,2013-07-14 14:20:00
10:36 AM,80.6,71.6,74,30.34,-9999.0,East,4.6,-,N/A,,Mostly Cloudy,90,2013-07-14 14:36:00
10:53 AM,80.1,71.1,74,30.30,-9999.0,Calm,Calm,-,N/A,,Mostly Cloudy,0,2013-07-14 14:53:00
11:18 AM,82.4,71.6,70,30.34,-9999.0,East,5.8,-,N/A,,Mostly Cloudy,80,2013-07-14 15:18:00
11:53 AM,84.0,71.1,65,30.30,-9999.0,East,5.8,-,N/A,,Mostly Cloudy,80,2013-07-14 15:53:00
12:53 PM,82.9,70.0,65,30.29,-9999.0,Variable,5.8,-,N/A,,Mostly Cloudy,0,2013-07-14 16:53:00
1:53 PM,87.1,71.1,59,30.28,-9999.0,ENE,4.6,-,N/A,,Scattered Clouds,70,2013-07-14 17:53:00
2:53 PM,84.9,71.1,63,30.27,-9999.0,East,4.6,-,N/A,,Scattered Clouds,100,2013-07-14 18:53:00
3:53 PM,88.0,70.0,55,30.25,-9999.0,Variable,6.9,-,N/A,,Scattered Clouds,0,2013-07-14 19:53:00
4:53 PM,86.0,70.0,59,30.24,-9999.0,Variable,4.6,-,N/A,,Mostly Cloudy,0,2013-07-14 20:53:00
5:53 PM,84.9,71.1,63,30.25,-9999.0,East,3.5,-,N/A,,Clear,90,2013-07-14 21:53:00
6:53 PM,84.0,70.0,63,30.24,-9999.0,Variable,3.5,-,N/A,,Clear,0,2013-07-14 22:53:00
7:53 PM,82.9,72.0,69,30.25,-9999.0,Calm,Calm,-,N/A,,Clear,0,2013-07-14 23:53:00
8:53 PM,79.0,72.0,79,30.26,-9999.0,Calm,Calm,-,N/A,,Clear,0,2013-07-15 00:53:00
9:53 PM,77.0,72.0,84,30.27,-9999.0,Calm,Calm,-,N/A,,Clear,0,2013-07-15 01:53:00
10:53 PM,75.0,72.0,90,30.29,-9999.0,Calm,Calm,-,N/A,,Clear,0,2013-07-15 02:53:00
11:53 PM,73.9,72.0,93,30.29,-9999.0,Calm,Calm,-,N/A,,Partly Cloudy,0,2013-07-15 03:53:00